Location: Peterborough
(44.3091°N, 78.3197°W)
Time: 07:42:10
(UTC-04:00)

Vanguard 3 - Pass Details

Date: 23 February 2024
Orbit: 510 x 3234 km, 33.3° (Epoch: 24 April)

Event Time Altitude Azimuth Distance (km) Brightness Sun altitude
Rises 18:32:29 0° 195° (SSW) 6,598 12.1 -7.8°
Reaches altitude 10° 18:38:08 10° 182° (S) 5,880 11.6 -8.8°
Maximum altitude 18:51:11 23° 139° (SE) 5,096 10.8 -11.2°
Enters shadow 19:02:01 14° 101° (E) 5,666 10.8 -13.1°
